星链-32378 (STARLINK-32378)

导读

STARLINK-32378是美国太空探索技术公司星链星座的卫星,于北京时间2024年9月13日发射,星链系统旨在提供全球覆盖的高速互联网服务,该卫星补充了星链低轨星座规模,提升星座服务容量,目前已完成在轨部署测试,投入运营服务,为全球用户提供宽带接入支持。

基本信息
目录编号:
61064
目录名称:
STARLINK-32378
国际标识:
2024-164Q
轨道中心:
EARTH
卫星名称:
星链-32378
卫星全名:
星链-32378 (STARLINK-32378)
卫星状态:
在轨 (已飞行642 天)
发射日期:
2024-09-13 UTC
国别 :
美国 (US)
星等 :
--
轨道信息
数据来源 国际轨道数据 AOE轨道数据
星历时间 2026-06-17T02:43:50+0800
1天前
查看轨道信息
2026-06-11T08:00:00+0800
6天前
查看轨道信息
半长轴 6848.832km 6848.859km
偏心率 0.0001231 0.0001711
轨道倾角 53.161° 53.161°
近地点辐角 74.170° 102.375°
升交点赤经 350.515° 17.428°
平近点角 285.944° 45.847°
近地点 469.851km 469.55km
远地点 471.539km 471.894km
周期 94.012分钟 94.013分钟
每日圈数 15.317152 15.317062
详细信息
固有亮度:
5
最大亮度:
2.5
卫星平台:
Starlink V1.0
覆盖范围:
全球
运营商:
太空探索技术公司
运营商所在国:
美国
制造商(研发单位):
太空探索技术公司
制造商所在国:
美国
使用方式:
暂无
卫星简介
Starlink 计划是 SpaceX 推出的全球卫星互联网项目,通过发射低轨道卫星,为全球尤其是偏远地区提供高速、低延迟的互联网服务。自 2019 年起,Starlink 已部署数千颗卫星,旨在缩小全球数字鸿沟,推动互联网普及。该项目还为军事、航空等行业提供通信支持,带来广泛经济效益。
2D轨道图
3D轨道图
轨道高度分析图
轨道倾角分析图
轨道综合分析图
查看轨道综合分析图